Location: *
(49.0189°N, 0.0325°W)
Time: 18:19:52
(UTC+00:00)

Daily predictions for brighter satellites

Satellite Brightness Start Highest point End
(mag) Time Altitude Azimuth Time Altitude Azimuth Time Altitude Azimuth
Cosmos 1842 3.9 18:25:40 10° NNW 18:29:36 62° W 18:33:29 10° S
Lacrosse 5 rocket 2.5 18:31:05 10° S 18:33:45 19° SE 18:36:30 10° E
COBE Rocket 4.2 18:29:25 10° N 18:34:29 80° WNW 18:39:38 10° SSW
Okean 1 Rocket 3.1 18:31:42 10° S 18:35:58 57° E 18:40:16 10° NNE
Cosmos 405 Rocket 3.9 18:34:15 10° SE 18:37:00 20° E 18:39:47 10° NE
Cosmos 1461 3.5 18:33:15 10° SW 18:37:10 56° NW 18:41:06 10° NNE
SKYMED 2 4.2 18:33:44 10° N 18:38:03 64° WNW 18:42:20 10° SSW
Cosmos 1025 Rocket 3.7 18:34:06 10° NNW 18:38:19 61° W 18:42:31 10° S
Cosmos 2341 Rocket 4.3 18:32:41 10° N 18:38:41 46° ENE 18:44:36 10° SE
Cosmos 1190 Rocket 4.2 18:35:17 10° NNW 18:40:30 55° ENE 18:45:40 10° SE
Cosmos 1939 Rocket 2.7 18:37:15 10° SSE 18:41:04 65° ENE 18:44:56 10° N
H-2A R/B 3.1 18:40:58 10° ESE 18:44:58 25° ENE 18:49:05 10° N
CSL-04 Rocket 4.4 18:40:11 10° S 18:45:38 61° WSW 18:51:10 10° NNW
Cosmos 1437 Rocket 4.2 18:43:11 10° NNE 18:45:58 19° ENE 18:48:19 12° ESE
Cosmos 1674 4.3 18:43:57 10° NNE 18:46:25 17° ENE 18:48:20 12° ESE
Cosmos 614 Rocket 4.0 18:41:29 10° NNW 18:46:42 65° ENE 18:51:51 10° SSE
Cosmos 2237 Rocket 2.2 18:43:23 10° NNW 18:49:08 76° ENE 18:54:50 10° SSE
NOSS 3-4 (A) 4.2 18:42:25 10° NW 18:49:21 71° SW 18:56:57 10° SSE
Cosmos 2333 Rocket 3.3 18:43:59 10° NW 18:49:26 47° WSW 18:54:53 10° S
NOSS 3-4 (C) 4.2 18:42:31 10° NW 18:49:27 72° SW 18:57:03 10° SSE
Cosmos 1441 Rocket 3.2 18:46:02 10° SSW 18:49:49 87° WNW 18:53:36 10° N
ADEOS Rocket 4.3 18:46:22 10° NNE 18:52:36 28° E 18:59:00 10° SE
Cosmos 2154 Rocket 4.0 18:47:49 10° N 18:54:04 89° W 19:00:18 10° S
NOSS 0 Rocket 4.2 18:49:31 10° NNW 18:55:44 72° WSW 19:01:54 10° SSE
Ariane Rocket 3.1 18:53:52 10° SSE 18:58:57 85° WSW 19:04:04 10° NNW
Cosmos 1980 3.7 18:53:36 10° NNW 18:59:18 87° WSW 19:04:57 10° SSE
SL-8 Rocket 4.2 18:53:49 10° N 18:59:48 47° ENE 19:05:42 10° SSE
Cosmos 389 Rocket 2.3 18:56:55 10° N 19:00:21 68° ENE 19:03:46 10° SSE
HJ-1C 3.3 18:57:09 10° SSE 19:00:31 81° ENE 19:03:55 10° N
FREGAT/IRIS 2.6 18:58:08 10° SSE 19:00:51 50° ENE 19:03:37 10° N
GP-B 3.3 18:57:09 10° N 19:01:36 75° W 19:06:02 10° S
YAOGAN 1 4.3 19:00:18 10° SSW 19:04:17 36° W 19:08:18 10° NNW
Resurs 01 Rocket 3.1 19:02:49 15° E 19:04:44 20° ENE 19:07:56 10° NNE
CZ-2C R/B 4.1 19:00:37 10° NNE 19:04:46 37° E 19:08:53 10° SSE
SJ-11-01 4.4 19:00:31 10° SSE 19:05:09 56° ENE 19:09:49 10° N
EO 1 Delta rocket 4.3 18:59:45 10° SSE 19:05:58 66° ENE 19:11:01 10° N
Cosmos 1892 Rocket 3.6 19:03:32 10° N 19:07:57 61° ENE 19:12:19 10° SSE
Cosmos 1805 4.4 19:06:58 17° ESE 19:08:36 22° E 19:11:38 10° NE
Cosmos 407 Rocket 3.5 19:03:29 10° NNW 19:08:39 82° WSW 19:13:46 10° SSE
SAR-Lupe-2 3.7 19:07:00 10° NNE 19:10:31 49° E 19:13:58 10° S
USA 234 3.8 19:04:35 10° ENE 19:10:59 57° NNW 19:17:23 10° W
Cosmos 2056 Rocket 3.6 19:08:26 10° S 19:13:45 60° ESE 19:19:04 10° NNE
Cosmos 1544 4.3 19:10:31 10° SSW 19:13:58 44° WNW 19:17:27 10° N
ASTEX 1 3.3 19:10:20 10° N 19:15:14 69° E 19:20:06 10° S
FAST 4.2 19:13:03 10° S 19:15:52 73° E 19:18:32 10° NNE
Cosmos 1707 3.5 19:13:28 10° NNW 19:17:19 56° W 19:21:10 10° S
CZ-4C R/B 4.3 19:12:34 10° NW 19:17:23 23° N 19:22:50 10° NE
Cosmos 2219 Rocket 4.2 19:14:45 10° NW 19:19:29 29° WSW 19:24:12 10° SSW
SL-16 R/B 2.3 19:16:30 10° NNW 19:22:08 57° ENE 19:26:04 20° SE
Cosmos 1140 Rocket 3.4 19:19:25 10° NNW 19:24:38 88° WSW 19:29:45 10° SSE
Cosmos 1624 Rocket 3.9 19:19:49 10° SSW 19:24:59 75° ESE 19:30:12 10° NNE
ISS -3.7 19:22:27 10° SW 19:25:42 56° SSE 19:26:54 33° E
ERBS 2.2 19:22:46 10° NW 19:26:10 85° NE 19:27:33 33° ESE
RESURS DK-1 3.4 19:22:49 10° NNW 19:26:30 29° NE 19:27:47 25° E
SL-8 R/B 3.6 19:22:34 10° W 19:27:23 85° S 19:30:06 26° E
SL-08 RB Rocket 4.4 19:26:58 24° ESE 19:29:07 38° ENE 19:33:25 10° N
Cosmos 1626 4.1 19:27:24 10° NNE 19:28:57 15° NE 19:28:57 15° NE
Okean 1-7 Rocket 3.7 19:25:38 10° NNW 19:30:06 80° W 19:34:35 10° S
Cosmos 2084 Rocket 3.4 19:25:47 10° SSW 19:30:12 67° SE 19:34:40 10° NE
Cosmos 1954 Rocket 3.9 19:26:46 10° NNW 19:32:02 82° ENE 19:36:06 17° SSE
Meteor 2-5 Rocket 3.8 19:27:17 10° N 19:33:10 75° ENE 19:39:05 10° SSE
GEOS 3 Rocket 3.8 19:30:05 16° SSE 19:34:15 70° SW 19:39:23 10° NW
Cosmos 2082 3.8 19:32:56 10° S 19:38:26 50° ESE 19:43:57 10° NE
USA 186 2.1 19:36:55 15° S 19:39:40 70° WSW 19:43:05 10° NNW
Meteor 1-4 Rocket 3.3 19:37:25 10° NNW 19:40:51 51° W 19:44:14 10° S
ARGOS 3.1 19:39:17 19° SSE 19:43:11 69° ENE 19:48:34 10° N
Cosmos 1544 Rocket 3.5 19:43:46 10° S 19:48:13 73° E 19:52:41 10° NNE
Cosmos 1455 Rocket 3.0 19:43:55 10° S 19:48:21 89° E 19:52:51 10° N
SL-14 R/B 4.3 19:45:52 10° N 19:48:59 29° ENE 19:48:59 29° ENE
SJ-6B 3.2 19:46:29 15° S 19:49:52 68° WSW 19:53:56 10° NNW
Cosmos 2227 Rocket 2.2 19:47:23 10° SSW 19:53:04 88° WNW 19:58:47 10° NNE
SPOT 3 Rocket 3.7 19:49:57 11° S 19:54:53 71° WSW 20:00:04 10° NNW
Cosmos 1766 3.1 19:54:23 24° S 19:56:40 76° E 20:00:35 10° NNE
MetOp-A 4.2 19:55:16 34° SE 19:57:30 61° ENE 20:02:48 10° N
CZ-2C R/B 3.2 19:55:54 34° SE 19:58:08 61° ENE 20:03:42 10° N
Cosmos 2219 4.0 19:53:31 10° SW 19:59:09 53° NW 20:04:47 10° NNE
Cosmos 2297 Rocket 2.4 19:57:37 10° SW 20:03:16 73° WNW 20:08:58 10° NNE
Transit 2A Rocket 4.4 20:01:35 10° NW 20:06:02 86° NE 20:06:48 60° SE
Cosmos 1626 Rocket 3.4 20:01:42 10° N 20:06:03 85° E 20:07:10 50° SSE
Cosmos 1452 Rocket 3.4 20:02:42 10° S 20:07:53 65° ESE 20:13:06 10° NNE
Lacrosse 5 rocket 1.2 20:08:49 10° WSW 20:12:29 72° NNW 20:12:54 64° NNE
Cosmos 405 Rocket 4.4 20:09:27 10° SW 20:12:48 32° WNW 20:16:13 10° N
Cosmos 1943 3.7 20:16:30 10° NNW 20:21:54 41° NE 20:22:30 40° ENE
Cosmos 1674 3.7 20:18:39 10° NNW 20:22:12 42° W 20:23:12 33° SW
Cosmos 1437 Rocket 4.0 20:18:52 10° NNW 20:22:24 37° W 20:23:45 27° SW
H-2A R/B 2.6 20:21:02 22° SSW 20:24:06 52° W 20:29:04 10° NNW
Cosmos 1758 Rocket 4.4 20:20:14 10° N 20:23:21 38° NE 20:23:21 38° NE
Resurs 1-3 4.0 20:24:58 44° SSW 20:26:08 61° W 20:30:30 10° NNW
Cosmos 1602 Rocket 3.6 20:23:44 10° NNW 20:28:04 71° W 20:28:32 64° SW
Nadezhda 3 Rocket 3.9 20:30:13 54° SE 20:31:22 64° E 20:37:32 10° NNE
ADEOS Rocket 3.7 20:31:13 10° NNE 20:38:37 76° WNW 20:46:23 10° SSW
Cosmos 1850 Rocket 4.2 20:34:27 10° NNW 20:39:36 65° WSW 20:40:27 55° SSW
Resurs 01 Rocket 2.1 20:40:24 54° SW 20:40:50 56° W 20:45:15 10° NNW
Meteor 1-21 Rocket 4.2 20:35:21 10° N 20:41:15 66° ENE 20:41:30 65° E
Cosmos 1821 Rocket 3.8 20:38:29 10° N 20:44:40 85° E 20:45:40 65° SSE
Cosmos 1535 Rocket 4.4 20:44:43 10° N 20:51:06 66° ENE 20:51:16 66° E
Cosmos 2239 Rocket 4.3 20:45:33 10° N 20:51:52 87° E 20:52:38 71° SSE
USA 234 4.1 20:49:56 25° ENE 20:53:24 44° N 20:59:33 10° WNW
ERS-1 Rocket 3.7 21:00:53 44° NNE 21:00:53 44° NNE 21:04:33 10° N
Cosmos 1603 3.6 20:56:13 10° NNW 21:01:45 83° WNW 21:01:45 83° WNW
ISS -0.8 20:59:12 10° W 20:59:49 14° W 20:59:49 14° W
SPOT 5 4.0 21:05:27 36° NNE 21:05:27 36° NNE 21:08:46 10° N
CZ-2C R/B 3.2 20:58:29 10° NNE 21:02:35 49° NE 21:02:35 49° NE
RESURS DK-1 4.0 21:00:47 10° NW 21:03:41 31° W 21:03:41 31° W
Cosmos 1626 4.2 21:01:37 10° NNW 21:03:30 26° NW 21:03:30 26° NW
SL-16 R/B 3.9 21:01:12 10° NW 21:05:54 27° WSW 21:07:58 22° SW
CZ-4C R/B 3.8 21:01:56 10° NW 21:07:56 34° NNE 21:09:50 30° NE
MetOp-B 4.5 21:12:16 60° W 21:12:16 60° W 21:17:30 10° NNW
Spot 2 Rocket 4.1 21:14:51 50° W 21:14:51 50° W 21:19:29 10° NNW
Terra 3.5 21:21:13 27° NNE 21:21:13 27° NNE 21:23:35 10° N
SPOT 1/Viking Rocket 4.3 21:25:03 49° NNW 21:25:03 49° NNW 21:28:49 10° NNW
Cosmos 1934 Rocket 4.4 21:35:47 10° NNW 21:41:26 57° WNW 21:41:26 57° WNW
Cosmos 2263 Rocket 4.1 22:00:08 22° NNE 22:00:08 22° NNE 22:02:01 10° NNE
USA 234 3.9 22:37:17 49° NNW 22:37:17 49° NNW 22:42:17 10° WNW
CZ-4C R/B 3.6 22:50:20 10° NW 22:54:59 47° NW 22:54:59 47° NW
Cosmos 2082 Rocket 4.2 23:15:37 10° NNW 23:18:11 23° N 23:18:11 23° N
Cosmos 2263 Rocket 4.4 23:41:49 20° NNW 23:41:49 20° NNW 23:45:18 10° N
